SWA2034 KBOI-KSAN

Flight info

Callsign SWA2034
Flight time 1h 58m
Altitude 39000
Route HYVAL REO EHF HUULK COMIX2
Aircraft B737/M-SDE2E3GIJ4RWZ/LB1D1

Departure

Time 2026-04-21 16:23
Airport Boise Air Terminal/Gowen Field (KBOI)

Arrival

Time 2026-04-21 18:21
Airport San Diego International Airport (KSAN)
Time Latitude Longitude Altitude Speed Heading
2026-04-21 15:46 43.56693 -116.21974 2880 ft 0 kts 32°
2026-04-21 16:13 43.56693 -116.21975 2880 ft 1 kts 32°
2026-04-21 16:13 43.56673 -116.21992 2880 ft 4 kts 32°
2026-04-21 16:13 43.56651 -116.22008 2880 ft 4 kts
2026-04-21 16:14 43.56636 -116.22000 2880 ft 1 kts 295°
2026-04-21 16:14 43.56628 -116.21976 2880 ft 1 kts 295°
2026-04-21 16:16 43.56631 -116.21985 2880 ft 2 kts 295°
2026-04-21 16:16 43.56642 -116.22016 2880 ft 5 kts 295°
2026-04-21 16:16 43.56644 -116.22073 2880 ft 7 kts 266°
2026-04-21 16:16 43.56640 -116.22154 2880 ft 10 kts 266°
2026-04-21 16:17 43.56651 -116.22255 2880 ft 12 kts 290°
2026-04-21 16:17 43.56687 -116.22362 2880 ft 13 kts 296°
2026-04-21 16:17 43.56725 -116.22470 2880 ft 12 kts 296°
2026-04-21 16:17 43.56762 -116.22575 2880 ft 12 kts 295°
2026-04-21 16:18 43.56797 -116.22679 2880 ft 12 kts 295°
2026-04-21 16:18 43.56831 -116.22779 2880 ft 11 kts 295°
2026-04-21 16:18 43.56864 -116.22878 2880 ft 12 kts 295°
2026-04-21 16:18 43.56900 -116.22981 2880 ft 12 kts 295°
2026-04-21 16:19 43.56934 -116.23082 2880 ft 12 kts 295°
2026-04-21 16:19 43.56968 -116.23181 2880 ft 11 kts 295°
2026-04-21 16:19 43.57001 -116.23276 2880 ft 11 kts 295°
2026-04-21 16:19 43.57033 -116.23370 2880 ft 11 kts 295°
2026-04-21 16:20 43.57064 -116.23460 2880 ft 10 kts 295°
2026-04-21 16:20 43.57094 -116.23548 2881 ft 10 kts 295°
2026-04-21 16:20 43.57115 -116.23637 2881 ft 10 kts 273°
2026-04-21 16:20 43.57109 -116.23727 2881 ft 9 kts 263°
2026-04-21 16:21 43.57100 -116.23816 2881 ft 9 kts 262°
2026-04-21 16:21 43.57092 -116.23902 2881 ft 9 kts 262°
2026-04-21 16:21 43.57079 -116.23988 2881 ft 9 kts 256°
2026-04-21 16:21 43.57063 -116.24073 2881 ft 9 kts 256°
2026-04-21 16:22 43.57053 -116.24129 2881 ft 9 kts 256°
2026-04-21 16:22 43.57017 -116.24224 2881 ft 9 kts 207°
2026-04-21 16:22 43.56974 -116.24180 2881 ft 8 kts 115°
2026-04-21 16:22 43.56947 -116.24097 2883 ft 12 kts 115°
2026-04-21 16:23 43.56843 -116.23793 2883 ft 68 kts 115°
2026-04-21 16:23 43.56548 -116.22932 2882 ft 128 kts 115°
2026-04-21 16:23 43.56088 -116.21612 2931 ft 171 kts 116°
2026-04-21 16:23 43.55574 -116.20131 3643 ft 169 kts 117°
2026-04-21 16:24 43.55100 -116.18655 4317 ft 176 kts 118°
2026-04-21 16:24 43.54193 -116.17397 4595 ft 199 kts 155°
2026-04-21 16:24 43.52754 -116.17132 4779 ft 227 kts 192°
2026-04-21 16:24 43.51761 -116.17739 4909 ft 248 kts 217°
2026-04-21 16:25 43.50233 -116.20321 5493 ft 272 kts 233°
2026-04-21 16:25 43.49522 -116.21796 6031 ft 275 kts 233°
2026-04-21 16:25 43.48468 -116.24008 6868 ft 277 kts 233°
2026-04-21 16:25 43.47060 -116.26941 8056 ft 278 kts 233°
2026-04-21 16:26 43.45978 -116.29163 8984 ft 280 kts 233°
2026-04-21 16:26 43.45238 -116.30669 9627 ft 281 kts 233°
2026-04-21 16:26 43.44130 -116.32909 10414 ft 288 kts 233°
2026-04-21 16:26 43.42962 -116.35246 10665 ft 314 kts 232°
2026-04-21 16:27 43.41653 -116.37850 10864 ft 339 kts 232°
2026-04-21 16:27 43.40288 -116.40563 11192 ft 357 kts 232°
2026-04-21 16:27 43.38855 -116.43409 11785 ft 366 kts 232°
2026-04-21 16:27 43.37394 -116.46308 12548 ft 369 kts 232°
2026-04-21 16:28 43.35925 -116.49217 13360 ft 372 kts 232°
2026-04-21 16:28 43.34443 -116.52148 14116 ft 375 kts 232°
2026-04-21 16:28 43.32947 -116.55100 14898 ft 378 kts 232°
2026-04-21 16:28 43.31441 -116.58069 15695 ft 379 kts 232°
2026-04-21 16:29 43.29929 -116.61044 16514 ft 381 kts 232°
2026-04-21 16:29 43.28412 -116.64028 17319 ft 382 kts 231°
2026-04-21 16:29 43.26885 -116.67026 18078 ft 384 kts 231°
2026-04-21 16:29 43.25346 -116.70046 18678 ft 388 kts 231°
2026-04-21 16:30 43.23794 -116.73086 19314 ft 390 kts 231°
2026-04-21 16:30 43.22235 -116.76139 19980 ft 391 kts 231°
2026-04-21 16:30 43.20668 -116.79204 20619 ft 393 kts 230°
2026-04-21 16:30 43.19092 -116.82285 21273 ft 395 kts 230°
2026-04-21 16:31 43.17507 -116.85382 21871 ft 398 kts 230°
2026-04-21 16:31 43.15909 -116.88498 22434 ft 400 kts 230°
2026-04-21 16:31 43.14305 -116.91621 23004 ft 402 kts 229°
2026-04-21 16:31 43.12679 -116.94737 23559 ft 402 kts 228°
2026-04-21 16:32 43.10971 -116.97786 24025 ft 404 kts 226°
2026-04-21 16:32 43.09247 -117.00761 24450 ft 406 kts 226°
2026-04-21 16:32 43.07476 -117.03788 24862 ft 408 kts 226°
2026-04-21 16:32 43.05699 -117.06831 25302 ft 411 kts 226°
2026-04-21 16:33 43.03888 -117.09945 25719 ft 413 kts 226°
2026-04-21 16:33 43.02122 -117.12994 26091 ft 416 kts 226°
2026-04-21 16:33 43.00321 -117.16109 26455 ft 419 kts 226°
2026-04-21 16:33 42.98509 -117.19248 26829 ft 422 kts 226°
2026-04-21 16:34 42.96685 -117.22407 27177 ft 425 kts 226°
2026-04-21 16:34 42.94850 -117.25582 27525 ft 427 kts 226°
2026-04-21 16:34 42.92999 -117.28784 27859 ft 430 kts 226°
2026-04-21 16:34 42.91140 -117.31995 28203 ft 432 kts 226°
2026-04-21 16:35 42.89277 -117.35210 28574 ft 433 kts 226°
2026-04-21 16:35 42.87414 -117.38424 29016 ft 432 kts 226°
2026-04-21 16:35 42.85550 -117.41635 29511 ft 430 kts 226°
2026-04-21 16:35 42.83700 -117.44819 29982 ft 429 kts 226°
2026-04-21 16:36 42.81845 -117.48005 30383 ft 428 kts 226°
2026-04-21 16:36 42.79997 -117.51176 30759 ft 427 kts 226°
2026-04-21 16:36 42.78146 -117.54347 31149 ft 427 kts 226°
2026-04-21 16:36 42.76299 -117.57510 31591 ft 426 kts 226°
2026-04-21 16:37 42.74466 -117.60647 32116 ft 422 kts 226°
2026-04-21 16:37 42.72643 -117.63762 32534 ft 421 kts 226°
2026-04-21 16:37 42.70820 -117.66872 32859 ft 421 kts 226°
2026-04-21 16:37 42.68990 -117.69991 33195 ft 421 kts 226°
2026-04-21 16:38 42.67167 -117.73096 33531 ft 420 kts 226°
2026-04-21 16:38 42.65367 -117.76161 33853 ft 420 kts 226°
2026-04-21 16:38 42.63544 -117.79258 34140 ft 419 kts 226°
2026-04-21 16:38 42.61701 -117.82301 34525 ft 413 kts 220°
2026-04-21 16:39 42.59520 -117.84714 34920 ft 400 kts 208°
2026-04-21 16:39 42.57086 -117.86495 35190 ft 396 kts 201°
2026-04-21 16:39 42.54497 -117.87733 35370 ft 395 kts 190°
2026-04-21 16:39 42.51779 -117.88324 35581 ft 394 kts 187°
2026-04-21 16:40 42.49064 -117.88826 35859 ft 393 kts 187°
2026-04-21 16:40 42.46354 -117.89312 36119 ft 392 kts 187°
2026-04-21 16:40 42.43644 -117.89801 36333 ft 392 kts 187°
2026-04-21 16:40 42.40937 -117.90296 36516 ft 392 kts 187°
2026-04-21 16:41 42.38233 -117.90797 36744 ft 391 kts 187°
2026-04-21 16:41 42.35543 -117.91302 37015 ft 390 kts 187°
2026-04-21 16:41 42.32857 -117.91809 37252 ft 389 kts 187°
2026-04-21 16:41 42.30177 -117.92316 37520 ft 387 kts 187°
2026-04-21 16:42 42.27514 -117.92822 37724 ft 388 kts 187°
2026-04-21 16:42 42.24840 -117.93330 37901 ft 388 kts 187°
2026-04-21 16:42 42.22208 -117.93829 38075 ft 387 kts 187°
2026-04-21 16:42 42.19548 -117.94334 38301 ft 386 kts 187°
2026-04-21 16:43 42.16846 -117.94846 38414 ft 387 kts 187°
2026-04-21 16:43 42.14225 -117.95342 38607 ft 385 kts 187°
2026-04-21 16:43 42.11538 -117.95850 38718 ft 386 kts 187°
2026-04-21 16:44 42.06216 -117.96855 38758 ft 390 kts 187°
2026-04-21 16:44 42.00846 -117.97869 38757 ft 389 kts 187°
2026-04-21 16:45 41.95504 -117.98874 38764 ft 386 kts 187°
2026-04-21 16:45 41.90188 -117.99874 38770 ft 385 kts 187°
2026-04-21 16:46 41.84883 -118.00869 38766 ft 384 kts 187°
2026-04-21 16:46 41.79617 -118.01855 38755 ft 383 kts 187°
2026-04-21 16:47 41.74337 -118.02843 38775 ft 383 kts 187°
2026-04-21 16:47 41.69050 -118.03830 38773 ft 384 kts 187°
2026-04-21 16:48 41.63760 -118.04816 38771 ft 384 kts 187°
2026-04-21 16:48 41.58472 -118.05800 38765 ft 384 kts 187°
2026-04-21 16:49 41.53180 -118.06783 38767 ft 383 kts 187°
2026-04-21 16:49 41.47894 -118.07763 38770 ft 384 kts 187°
2026-04-21 16:50 41.42592 -118.08745 38792 ft 385 kts 187°
2026-04-21 16:50 41.37302 -118.09723 38779 ft 386 kts 187°
2026-04-21 16:51 41.31984 -118.10704 38770 ft 386 kts 187°
2026-04-21 16:51 41.26661 -118.11685 38769 ft 385 kts 187°
2026-04-21 16:52 41.21357 -118.12661 38775 ft 385 kts 187°
2026-04-21 16:52 41.16046 -118.13636 38771 ft 385 kts 187°
2026-04-21 16:53 41.10744 -118.14608 38770 ft 384 kts 187°
2026-04-21 16:53 41.05448 -118.15578 38770 ft 384 kts 187°
2026-04-21 16:54 41.00146 -118.16546 38759 ft 385 kts 187°
2026-04-21 16:54 40.94877 -118.17508 38771 ft 385 kts 187°
2026-04-21 16:55 40.89536 -118.18481 38764 ft 385 kts 187°
2026-04-21 16:55 40.84252 -118.19441 38759 ft 385 kts 187°
2026-04-21 16:56 40.78936 -118.20407 38782 ft 385 kts 187°
2026-04-21 16:56 40.73612 -118.21372 38778 ft 387 kts 187°
2026-04-21 16:57 40.68276 -118.22338 38768 ft 388 kts 187°
2026-04-21 16:57 40.62924 -118.23305 38762 ft 388 kts 187°
2026-04-21 16:58 40.57574 -118.24270 38762 ft 388 kts 187°
2026-04-21 16:58 40.52263 -118.25226 38760 ft 388 kts 187°
2026-04-21 16:59 40.46905 -118.26190 38763 ft 388 kts 187°
2026-04-21 16:59 40.41547 -118.27152 38756 ft 388 kts 187°
2026-04-21 17:00 40.36192 -118.28112 38758 ft 389 kts 187°
2026-04-21 17:00 40.31740 -118.28908 38761 ft 389 kts 187°
2026-04-21 17:01 40.25473 -118.30029 38764 ft 388 kts 187°
2026-04-21 17:01 40.20110 -118.30985 38743 ft 389 kts 187°
2026-04-21 17:02 40.14749 -118.31940 38761 ft 390 kts 187°
2026-04-21 17:02 40.09371 -118.32896 38764 ft 391 kts 187°
2026-04-21 17:03 40.03974 -118.33854 38807 ft 391 kts 187°
2026-04-21 17:03 39.98574 -118.34811 38787 ft 391 kts 187°
2026-04-21 17:04 39.93216 -118.35759 38797 ft 391 kts 187°
2026-04-21 17:04 39.87822 -118.36713 38791 ft 391 kts 187°
2026-04-21 17:05 39.82418 -118.37666 38784 ft 392 kts 188°
2026-04-21 17:05 39.77015 -118.38617 38757 ft 392 kts 188°
2026-04-21 17:06 39.71614 -118.39567 38755 ft 391 kts 188°
2026-04-21 17:06 39.66225 -118.40513 38759 ft 391 kts 188°
2026-04-21 17:07 39.61747 -118.41298 38769 ft 390 kts 188°
2026-04-21 17:07 39.55452 -118.42400 38778 ft 390 kts 188°
2026-04-21 17:08 39.50070 -118.43340 38798 ft 390 kts 188°
2026-04-21 17:08 39.44694 -118.44278 38804 ft 390 kts 188°
2026-04-21 17:09 39.36609 -118.45686 38739 ft 391 kts 188°
2026-04-21 17:09 39.31251 -118.46618 38745 ft 391 kts 188°
2026-04-21 17:10 39.25848 -118.47555 38747 ft 392 kts 188°
2026-04-21 17:10 39.20435 -118.48493 38750 ft 392 kts 188°
2026-04-21 17:11 39.15033 -118.49427 38751 ft 392 kts 188°
2026-04-21 17:11 39.09614 -118.50364 38747 ft 393 kts 188°
2026-04-21 17:12 39.04190 -118.51299 38745 ft 394 kts 188°
2026-04-21 17:12 38.98757 -118.52234 38740 ft 394 kts 188°
2026-04-21 17:13 38.93327 -118.53168 38723 ft 393 kts 188°
2026-04-21 17:13 38.88822 -118.53941 38733 ft 393 kts 188°
2026-04-21 17:14 38.83408 -118.54869 38738 ft 392 kts 188°
2026-04-21 17:14 38.78000 -118.55795 38733 ft 392 kts 188°
2026-04-21 17:15 38.72584 -118.56720 38721 ft 393 kts 188°
2026-04-21 17:15 38.67165 -118.57645 38819 ft 393 kts 188°
2026-04-21 17:16 38.61737 -118.58570 38837 ft 394 kts 188°
2026-04-21 17:16 38.56287 -118.59497 38831 ft 395 kts 188°
2026-04-21 17:17 38.50837 -118.60423 38809 ft 396 kts 189°
2026-04-21 17:17 38.45370 -118.61351 38825 ft 396 kts 189°
2026-04-21 17:18 38.39895 -118.62280 38816 ft 397 kts 189°
2026-04-21 17:18 38.34445 -118.63204 38789 ft 398 kts 189°
2026-04-21 17:19 38.28935 -118.64130 38765 ft 400 kts 189°
2026-04-21 17:19 38.23409 -118.65060 38766 ft 401 kts 189°
2026-04-21 17:20 38.17857 -118.65993 38732 ft 402 kts 189°
2026-04-21 17:20 38.12313 -118.66923 38757 ft 402 kts 190°
2026-04-21 17:21 38.06776 -118.67854 38741 ft 401 kts 190°
2026-04-21 17:21 38.01242 -118.68782 38746 ft 401 kts 190°
2026-04-21 17:22 37.95722 -118.69706 38755 ft 400 kts 190°
2026-04-21 17:22 37.90207 -118.70627 38792 ft 399 kts 190°
2026-04-21 17:23 37.84705 -118.71544 38816 ft 398 kts 191°
2026-04-21 17:23 37.79219 -118.72458 38865 ft 397 kts 191°
2026-04-21 17:24 37.73739 -118.73369 38904 ft 398 kts 191°
2026-04-21 17:24 37.68285 -118.74275 38945 ft 399 kts 191°
2026-04-21 17:25 37.62775 -118.75189 38937 ft 399 kts 191°
2026-04-21 17:25 37.57259 -118.76102 38947 ft 400 kts 191°
2026-04-21 17:26 37.51736 -118.77015 38928 ft 400 kts 191°
2026-04-21 17:26 37.46217 -118.77926 38914 ft 401 kts 191°
2026-04-21 17:27 37.40661 -118.78841 38883 ft 402 kts 191°
2026-04-21 17:27 37.35114 -118.79753 38910 ft 402 kts 191°
2026-04-21 17:28 37.29550 -118.80668 38923 ft 403 kts 191°
2026-04-21 17:28 37.23977 -118.81582 38918 ft 404 kts 191°
2026-04-21 17:29 37.18401 -118.82496 38921 ft 403 kts 192°
2026-04-21 17:29 37.12888 -118.83397 38923 ft 401 kts 192°
2026-04-21 17:30 37.07359 -118.84299 38936 ft 399 kts 192°
2026-04-21 17:30 37.01864 -118.85195 38956 ft 398 kts 192°
2026-04-21 17:31 36.96386 -118.86087 38956 ft 396 kts 192°
2026-04-21 17:31 36.90921 -118.86976 38957 ft 395 kts 192°
2026-04-21 17:32 36.85473 -118.87862 38966 ft 395 kts 192°
2026-04-21 17:32 36.80016 -118.88747 38988 ft 394 kts 192°
2026-04-21 17:33 36.74579 -118.89627 39004 ft 394 kts 193°
2026-04-21 17:33 36.69170 -118.90502 39018 ft 395 kts 192°
2026-04-21 17:34 36.63715 -118.91383 39012 ft 395 kts 193°
2026-04-21 17:34 36.58227 -118.92268 39011 ft 396 kts 192°
2026-04-21 17:35 36.52807 -118.93140 39021 ft 395 kts 193°
2026-04-21 17:35 36.47353 -118.94016 39023 ft 395 kts 193°
2026-04-21 17:36 36.41909 -118.94890 39033 ft 394 kts 193°
2026-04-21 17:36 36.36459 -118.95765 39048 ft 395 kts 193°
2026-04-21 17:37 36.31008 -118.96637 39010 ft 395 kts 193°
2026-04-21 17:37 36.25559 -118.97508 39030 ft 395 kts 194°
2026-04-21 17:38 36.20102 -118.98380 39039 ft 396 kts 194°
2026-04-21 17:38 36.14627 -118.99254 39039 ft 397 kts 194°
2026-04-21 17:39 36.09141 -119.00127 39044 ft 398 kts 194°
2026-04-21 17:39 36.03693 -119.00992 39035 ft 397 kts 194°
2026-04-21 17:40 35.98204 -119.01863 39046 ft 397 kts 194°
2026-04-21 17:40 35.92721 -119.02732 39043 ft 398 kts 194°
2026-04-21 17:41 35.87219 -119.03604 39044 ft 398 kts 194°
2026-04-21 17:41 35.81733 -119.04471 39028 ft 398 kts 194°
2026-04-21 17:42 35.76242 -119.05337 39035 ft 398 kts 194°
2026-04-21 17:42 35.70754 -119.06203 39036 ft 398 kts 194°
2026-04-21 17:43 35.65259 -119.07068 39056 ft 398 kts 194°
2026-04-21 17:43 35.59768 -119.07931 39042 ft 397 kts 195°
2026-04-21 17:44 35.54315 -119.08788 39041 ft 397 kts 195°
2026-04-21 17:44 35.48713 -119.08756 39036 ft 413 kts 180°
2026-04-21 17:45 35.43065 -119.06803 39016 ft 432 kts 167°
2026-04-21 17:45 35.37571 -119.03733 39022 ft 435 kts 165°
2026-04-21 17:46 35.32091 -119.00592 39020 ft 434 kts 165°
2026-04-21 17:46 35.26604 -118.97498 39020 ft 434 kts 166°
2026-04-21 17:47 35.21100 -118.94433 38980 ft 433 kts 166°
2026-04-21 17:47 35.15616 -118.91392 39007 ft 433 kts 166°
2026-04-21 17:48 35.10124 -118.88352 38998 ft 433 kts 167°
2026-04-21 17:48 35.04670 -118.85336 39022 ft 433 kts 167°
2026-04-21 17:49 34.99178 -118.82303 38996 ft 433 kts 167°
2026-04-21 17:49 34.93684 -118.79274 39023 ft 434 kts 167°
2026-04-21 17:50 34.88172 -118.76241 39036 ft 436 kts 167°
2026-04-21 17:50 34.82627 -118.73193 39045 ft 438 kts 167°
2026-04-21 17:51 34.77053 -118.70131 39055 ft 440 kts 167°
2026-04-21 17:51 34.71466 -118.67066 39049 ft 441 kts 167°
2026-04-21 17:52 34.65873 -118.64004 39049 ft 442 kts 167°
2026-04-21 17:52 34.60271 -118.60941 39051 ft 441 kts 166°
2026-04-21 17:53 34.54791 -118.57426 39078 ft 450 kts 160°
2026-04-21 17:53 34.49407 -118.53499 39062 ft 452 kts 159°
2026-04-21 17:54 34.44005 -118.49565 39116 ft 453 kts 160°
2026-04-21 17:54 34.38588 -118.45684 39137 ft 452 kts 160°
2026-04-21 17:55 34.33160 -118.41829 39157 ft 453 kts 160°
2026-04-21 17:55 34.27707 -118.37967 39154 ft 454 kts 160°
2026-04-21 17:56 34.22248 -118.34103 39099 ft 454 kts 159°
2026-04-21 17:56 34.16784 -118.30240 39107 ft 456 kts 159°
2026-04-21 17:57 34.11310 -118.26375 39095 ft 456 kts 159°
2026-04-21 17:57 34.08566 -118.24442 38833 ft 461 kts 159°
2026-04-21 17:57 34.05780 -118.22484 38209 ft 463 kts 160°
2026-04-21 17:58 34.03008 -118.20530 37565 ft 460 kts 160°
2026-04-21 17:58 34.00286 -118.18611 36953 ft 458 kts 160°
2026-04-21 17:58 33.97496 -118.16647 36282 ft 458 kts 160°
2026-04-21 17:58 33.94780 -118.14740 35579 ft 458 kts 160°
2026-04-21 17:59 33.92018 -118.12803 34824 ft 459 kts 160°
2026-04-21 17:59 33.89258 -118.10867 34047 ft 460 kts 161°
2026-04-21 17:59 33.86488 -118.08926 33107 ft 461 kts 160°
2026-04-21 17:59 33.83707 -118.06987 32326 ft 458 kts 161°
2026-04-21 18:00 33.80960 -118.05132 31762 ft 451 kts 161°
2026-04-21 18:00 33.78221 -118.03324 31169 ft 446 kts 161°
2026-04-21 18:00 33.75508 -118.01546 30599 ft 442 kts 161°
2026-04-21 18:00 33.73724 -118.00377 30235 ft 439 kts 161°
2026-04-21 18:01 33.71057 -117.98625 29572 ft 435 kts 161°
2026-04-21 18:01 33.68414 -117.96884 28940 ft 429 kts 160°
2026-04-21 18:01 33.65817 -117.95169 28344 ft 423 kts 160°
2026-04-21 18:01 33.63247 -117.93473 27733 ft 418 kts 160°
2026-04-21 18:02 33.60718 -117.91806 27151 ft 412 kts 160°
2026-04-21 18:02 33.58213 -117.90156 26578 ft 408 kts 160°
2026-04-21 18:02 33.55744 -117.88530 26004 ft 403 kts 160°
2026-04-21 18:02 33.53296 -117.86905 25426 ft 400 kts 159°
2026-04-21 18:03 33.50887 -117.85262 24861 ft 397 kts 159°
2026-04-21 18:03 33.48499 -117.83625 24295 ft 394 kts 158°
2026-04-21 18:03 33.46128 -117.82005 23700 ft 391 kts 158°
2026-04-21 18:03 33.43804 -117.80291 23010 ft 395 kts 152°
2026-04-21 18:04 33.41685 -117.78171 22460 ft 396 kts 146°
2026-04-21 18:04 33.39650 -117.75964 21864 ft 393 kts 145°
2026-04-21 18:04 33.37643 -117.73770 21307 ft 389 kts 145°
2026-04-21 18:04 33.35652 -117.71607 20742 ft 387 kts 146°
2026-04-21 18:05 33.33655 -117.69456 20168 ft 383 kts 146°
2026-04-21 18:05 33.31702 -117.67365 19626 ft 380 kts 146°
2026-04-21 18:05 33.29735 -117.65266 19067 ft 377 kts 146°
2026-04-21 18:05 33.27778 -117.63182 18490 ft 376 kts 146°
2026-04-21 18:06 33.25835 -117.61114 17877 ft 374 kts 146°
2026-04-21 18:06 33.23898 -117.59058 17277 ft 370 kts 146°
2026-04-21 18:06 33.21978 -117.57035 16627 ft 368 kts 146°
2026-04-21 18:06 33.20061 -117.55020 16049 ft 365 kts 146°
2026-04-21 18:07 33.18162 -117.53023 15488 ft 362 kts 146°
2026-04-21 18:07 33.16282 -117.51047 14941 ft 358 kts 146°
2026-04-21 18:07 33.14420 -117.49090 14403 ft 354 kts 146°
2026-04-21 18:07 33.12518 -117.47295 14033 ft 341 kts 152°
2026-04-21 18:08 33.10601 -117.45709 13783 ft 331 kts 153°
2026-04-21 18:08 33.08715 -117.44164 13519 ft 328 kts 152°
2026-04-21 18:08 33.06841 -117.42620 13196 ft 330 kts 152°
2026-04-21 18:08 33.04934 -117.41043 12635 ft 333 kts 152°
2026-04-21 18:09 33.03047 -117.39463 12136 ft 330 kts 151°
2026-04-21 18:09 33.01181 -117.37894 11630 ft 326 kts 150°
2026-04-21 18:09 32.99334 -117.36342 11139 ft 323 kts 150°
2026-04-21 18:09 32.97525 -117.34821 10936 ft 311 kts 150°
2026-04-21 18:10 32.95818 -117.33385 10829 ft 297 kts 151°
2026-04-21 18:10 32.94165 -117.31999 10736 ft 284 kts 151°
2026-04-21 18:10 32.92588 -117.30677 10639 ft 271 kts 151°
2026-04-21 18:10 32.91077 -117.29415 10531 ft 260 kts 152°
2026-04-21 18:11 32.89606 -117.28194 10266 ft 257 kts 152°
2026-04-21 18:11 32.88139 -117.26980 9904 ft 257 kts 152°
2026-04-21 18:11 32.86671 -117.25763 9518 ft 257 kts 151°
2026-04-21 18:11 32.85199 -117.24542 9160 ft 258 kts 151°
2026-04-21 18:12 32.83729 -117.23322 8809 ft 258 kts 151°
2026-04-21 18:12 32.82258 -117.22099 8472 ft 258 kts 149°
2026-04-21 18:12 32.81068 -117.20462 8093 ft 271 kts 120°
2026-04-21 18:12 32.80465 -117.18323 7764 ft 274 kts 108°
2026-04-21 18:13 32.79999 -117.16130 7436 ft 273 kts 107°
2026-04-21 18:13 32.79539 -117.13944 7131 ft 273 kts 107°
2026-04-21 18:13 32.79071 -117.11783 7004 ft 263 kts 107°
2026-04-21 18:13 32.78621 -117.09740 6939 ft 249 kts 107°
2026-04-21 18:14 32.77785 -117.06000 6739 ft 220 kts 108°
2026-04-21 18:14 32.77372 -117.04291 6519 ft 213 kts 108°
2026-04-21 18:14 32.76958 -117.02602 6157 ft 213 kts 108°
2026-04-21 18:15 32.76545 -117.00913 5825 ft 212 kts 108°
2026-04-21 18:15 32.76138 -116.99245 5499 ft 209 kts 107°
2026-04-21 18:15 32.75658 -116.97622 5181 ft 207 kts 120°
2026-04-21 18:15 32.74751 -116.96335 4836 ft 203 kts 145°
2026-04-21 18:16 32.73525 -116.95597 4545 ft 193 kts 168°
2026-04-21 18:16 32.72221 -116.95434 4312 ft 187 kts 188°
2026-04-21 18:16 32.70976 -116.95809 4104 ft 185 kts 207°
2026-04-21 18:16 32.69918 -116.96669 3888 ft 185 kts 226°
2026-04-21 18:17 32.69170 -116.97884 3650 ft 183 kts 243°
2026-04-21 18:17 32.68822 -116.99329 3412 ft 183 kts 266°
2026-04-21 18:17 32.68916 -117.00803 3155 ft 181 kts 281°
2026-04-21 18:17 32.69258 -117.02229 2954 ft 180 kts 284°
2026-04-21 18:18 32.69615 -117.03670 2724 ft 183 kts 284°
2026-04-21 18:18 32.69975 -117.05118 2470 ft 181 kts 284°
2026-04-21 18:18 32.70328 -117.06539 2230 ft 178 kts 284°
2026-04-21 18:18 32.70677 -117.07960 2003 ft 180 kts 284°
2026-04-21 18:19 32.71019 -117.09351 1740 ft 170 kts 284°
2026-04-21 18:19 32.71334 -117.10631 1530 ft 153 kts 284°
2026-04-21 18:19 32.71619 -117.11813 1307 ft 144 kts 283°
2026-04-21 18:19 32.71878 -117.12932 1052 ft 138 kts 282°
2026-04-21 18:20 32.72150 -117.14004 854 ft 132 kts 283°
2026-04-21 18:20 32.72414 -117.15055 667 ft 133 kts 281°
2026-04-21 18:20 32.72660 -117.16114 405 ft 131 kts 283°
2026-04-21 18:20 32.72921 -117.17156 203 ft 134 kts 283°
2026-04-21 18:21 32.73176 -117.18218 30 ft 132 kts 283°
2026-04-21 18:21 32.73391 -117.19117 23 ft 88 kts 286°
2026-04-21 18:21 32.73513 -117.19617 23 ft 52 kts 285°
2026-04-21 18:21 32.73606 -117.20004 22 ft 46 kts 286°
2026-04-21 18:22 32.73677 -117.20293 21 ft 18 kts 286°
2026-04-21 18:22 32.73652 -117.20417 23 ft 18 kts 190°
2026-04-21 18:22 32.73580 -117.20317 22 ft 17 kts 105°
2026-04-21 18:22 32.73550 -117.20192 22 ft 8 kts 106°
2026-04-21 18:23 32.73535 -117.20131 22 ft 7 kts 106°
2026-04-21 18:23 32.73520 -117.20069 22 ft 9 kts 106°
2026-04-21 18:23 32.73500 -117.19989 23 ft 10 kts 108°
2026-04-21 18:23 32.73481 -117.19910 22 ft 10 kts 106°
2026-04-21 18:24 32.73436 -117.19862 23 ft 10 kts 176°
2026-04-21 18:24 32.73392 -117.19860 22 ft 3 kts 177°
2026-04-21 18:24 32.73383 -117.19859 22 ft 0 kts 176°